Stations météo

réclame
Mon MeteoGroup
Jaen, Espagne (8417): Température de l'air & dewpoint: 11.07.2018 13:00:00 - 17.07.2018 13:00:00 (CEST)Jaen, Espagne (8417): Vitesse du vent: 11.07.2018 13:00:00 - 17.07.2018 13:00:00 (CEST)Jaen, Espagne (8417): Direction du vent: 11.07.2018 13:00:00 - 17.07.2018 13:00:00 (CEST)Jaen, Espagne (8417): reduced air pressure: 11.07.2018 13:00:00 - 17.07.2018 13:00:00 (CEST)Jaen, Espagne (8417): visibility: 11.07.2018 13:00:00 - 17.07.2018 13:00:00 (CEST)Jaen, Espagne (8417): Quantités de précipitations: 11.07.2018 13:00:00 - 17.07.2018 13:00:00 (CEST)
Date & Time tt [°C] td [°C] ff [km/h] ff [knt] dd ppp [hPa] vv [km] rr [mm]
17.07.2018 13:00:00 31,6 8,6 5 3 N 1013,2 20 0,0
17.07.2018 12:00:00 30,2 8,6 5 3 NNE 1013,7 20 0,0
17.07.2018 11:00:00 28,6 9,3 5 3 NE 1014,2 20 -
17.07.2018 10:00:00 25,1 10,2 5 3 NNE 1015,1 20 0,0
17.07.2018 09:00:00 22,5 11,2 4 2 NNE 1015,9 20 0,0
17.07.2018 08:00:00 21,5 10,3 4 2 W 1015,7 20 -
17.07.2018 07:00:00 20,9 9,5 8 4 S 1015,8 20 0,0
17.07.2018 06:00:00 20,5 10,6 2 1 SW 1015,9 20 0,0
17.07.2018 05:00:00 20,9 10,4 4 2 SW 1015,9 20 -
17.07.2018 04:00:00 22,0 10,2 8 4 SW 1015,7 20 0,0
17.07.2018 03:00:00 22,7 9,1 9 5 SW 1016,1 20 0,0
17.07.2018 02:00:00 22,2 8,7 4 2 SW 1016,6 20 -
17.07.2018 01:00:00 22,4 8,9 4 2 SW 1016,7 20 0,0
17.07.2018 00:00:00 22,9 8,2 2 1 SW 1016,8 20 0,0
16.07.2018 23:00:00 23,5 8,0 4 2 SSW 1016,5 20 -
16.07.2018 22:00:00 25,4 7,0 4 2 SW 1015,8 20 0,0
16.07.2018 21:00:00 28,3 7,0 2 1 W 1015,1 20 0,0
16.07.2018 20:00:00 29,7 5,0 4 2 ENE 1014,8 20 -
16.07.2018 19:00:00 30,2 6,1 9 5 NNW 1014,8 20 0,0
16.07.2018 18:00:00 29,7 5,7 9 5 NW 1015,4 20 0,0
16.07.2018 17:00:00 29,7 6,3 9 5 NNW 1015,7 20 -
16.07.2018 16:00:00 28,6 7,8 11 6 NNW 1016,4 20 0,0
16.07.2018 15:00:00 27,9 8,2 9 5 N 1017,1 20 0,0
16.07.2018 14:00:00 27,1 9,4 8 4 NNE 1017,8 20 -
16.07.2018 13:00:00 25,6 9,4 11 6 N 1018,6 20 0,0
16.07.2018 12:00:00 24,6 10,5 8 4 NNW 1018,9 20 0,0
16.07.2018 11:00:00 22,5 11,6 5 3 NNE 1019,3 20 -
16.07.2018 10:00:00 19,4 12,9 4 2 N 1020,3 20 0,0
16.07.2018 09:00:00 18,3 12,7 5 3 NNE 1020,5 20 0,0
16.07.2018 08:00:00 17,6 12,9 5 3 W 1020,1 20 -
16.07.2018 07:00:00 16,9 12,4 8 4 W 1020,2 20 0,0
16.07.2018 06:00:00 16,9 11,6 4 2 SSW 1020,0 20 0,0
16.07.2018 05:00:00 18,8 11,8 5 3 NW 1019,5 20 -
16.07.2018 04:00:00 19,4 11,7 13 7 W 1019,3 20 0,0
16.07.2018 03:00:00 19,8 11,6 18 10 W 1019,1 20 0,0
16.07.2018 02:00:00 19,7 12,5 21 11 W 1019,4 20 -
16.07.2018 01:00:00 20,0 12,2 21 11 W 1019,2 20 0,0
16.07.2018 00:00:00 20,8 10,9 5 3 W 1018,6 20 0,0
15.07.2018 23:00:00 21,7 10,5 21 11 W 1017,7 20 -
15.07.2018 22:00:00 22,5 8,9 13 7 W 1017,0 20 0,0
15.07.2018 21:00:00 23,9 7,9 16 9 W 1016,2 20 0,0
15.07.2018 20:00:00 25,7 7,3 21 11 WNW 1015,4 20 -
15.07.2018 19:00:00 27,0 9,4 16 9 WNW 1015,1 20 0,0
15.07.2018 18:00:00 27,2 10,4 21 11 WNW 1015,0 20 0,0
15.07.2018 17:00:00 26,5 10,6 18 10 WNW 1015,3 20 -
15.07.2018 16:00:00 27,1 9,4 21 11 WNW 1015,5 20 0,0
15.07.2018 15:00:00 25,9 10,1 29 16 WNW 1015,8 20 0,0
15.07.2018 14:00:00 25,7 9,5 22 12 NNW 1016,2 20 -
15.07.2018 13:00:00 24,3 12,3 15 8 NNW 1017,4 20 0,0
15.07.2018 12:00:00 21,6 12,7 9 5 N 1018,4 20 0,0
15.07.2018 11:00:00 19,1 12,6 5 3 NNE 1019,3 20 -
15.07.2018 10:00:00 17,4 12,3 5 3 N 1020,0 20 0,0
15.07.2018 09:00:00 16,0 11,6 5 3 N 1020,3 20 0,0
15.07.2018 08:00:00 15,2 11,2 8 4 ESE 1020,2 20 -
15.07.2018 07:00:00 14,9 11,3 2 1 NW 1019,9 20 0,0
15.07.2018 06:00:00 15,9 11,3 5 3 SSE 1019,3 20 0,0
15.07.2018 05:00:00 16,3 11,2 9 5 WSW 1019,7 20 -
15.07.2018 04:00:00 18,1 11,4 4 2 NNW 1019,0 20 0,0
15.07.2018 03:00:00 19,5 11,8 8 4 SE 1018,7 20 0,0
15.07.2018 02:00:00 20,5 11,4 4 2 S 1018,8 20 -
15.07.2018 01:00:00 21,5 11,2 11 6 WSW 1018,6 20 0,0
15.07.2018 00:00:00 22,9 10,7 16 9 W 1018,0 20 0,0
14.07.2018 23:00:00 24,2 11,8 16 9 WNW 1017,1 20 -
14.07.2018 22:00:00 25,8 12,3 13 7 W 1015,7 20 0,0
14.07.2018 21:00:00 27,9 13,0 21 11 WNW 1014,7 20 0,0
14.07.2018 20:00:00 30,1 13,4 16 9 WNW 1013,7 20 -
14.07.2018 19:00:00 31,2 13,5 15 8 WNW 1013,5 20 0,0
14.07.2018 18:00:00 31,4 13,2 18 10 WNW 1013,8 20 0,0
14.07.2018 17:00:00 31,7 13,0 18 10 NW 1013,9 20 -
14.07.2018 16:00:00 31,8 11,6 13 7 WNW 1014,4 20 0,0
14.07.2018 15:00:00 31,3 13,1 9 5 NNW 1014,8 20 0,0
14.07.2018 14:00:00 30,0 12,9 9 5 NNE 1015,8 20 -
14.07.2018 13:00:00 27,9 12,7 5 3 NNW 1016,7 20 0,0
14.07.2018 12:00:00 25,8 13,6 5 3 N 1017,2 20 0,0
14.07.2018 11:00:00 23,4 13,3 8 4 ENE 1017,8 20 -
14.07.2018 10:00:00 21,6 12,7 5 3 E 1018,3 20 0,0
14.07.2018 09:00:00 18,7 12,4 4 2 N 1018,8 20 0,0
14.07.2018 08:00:00 17,8 12,5 2 1 N 1018,6 20 -
14.07.2018 07:00:00 17,0 11,9 4 2 W 1018,7 20 0,0
14.07.2018 06:00:00 17,4 11,7 2 1 SSW 1018,3 20 0,0
14.07.2018 05:00:00 18,5 11,6 2 1 SSW 1017,8 20 -
14.07.2018 04:00:00 19,3 11,3 5 3 S 1017,7 20 0,0
14.07.2018 03:00:00 19,8 12,1 11 6 W 1017,7 20 0,0
14.07.2018 02:00:00 21,0 10,8 5 3 SSW 1017,3 20 -
14.07.2018 01:00:00 22,0 10,5 8 4 WSW 1017,0 20 0,0
14.07.2018 00:00:00 23,7 10,7 8 4 W 1016,4 20 0,0
13.07.2018 23:00:00 24,7 10,2 9 5 W 1015,6 20 -
13.07.2018 22:00:00 25,8 9,6 11 6 W 1014,4 20 0,0
13.07.2018 21:00:00 27,8 9,6 13 7 WNW 1013,6 20 0,0
13.07.2018 20:00:00 29,7 10,8 15 8 WNW 1012,7 20 -
13.07.2018 19:00:00 29,8 11,3 21 11 WNW 1012,6 20 0,0
13.07.2018 18:00:00 30,1 11,6 22 12 NW 1012,6 20 0,0
13.07.2018 17:00:00 30,6 11,5 16 9 NNW 1012,5 20 -
13.07.2018 16:00:00 30,4 13,7 11 6 NW 1012,8 20 0,0
13.07.2018 15:00:00 29,3 14,7 8 4 NNE 1013,5 20 0,0
13.07.2018 14:00:00 27,8 15,1 9 5 NNW 1014,2 20 -
13.07.2018 13:00:00 26,3 14,4 8 4 NNE 1015,0 20 0,0
13.07.2018 12:00:00 23,8 14,2 5 3 NNE 1015,7 20 0,0
13.07.2018 11:00:00 21,9 14,0 4 2 ENE 1016,2 20 -
13.07.2018 10:00:00 19,4 14,2 4 2 ESE 1016,7 19 0,0
13.07.2018 09:00:00 17,8 13,9 8 4 NNW 1016,6 19 0,0
13.07.2018 08:00:00 17,0 13,1 4 2 W 1016,6 20 -
13.07.2018 07:00:00 16,8 12,5 2 1 SW 1016,3 17 0,0
13.07.2018 06:00:00 17,9 13,2 4 2 W 1016,1 20 0,0
13.07.2018 05:00:00 18,2 13,3 8 4 SSE 1016,0 20 -
13.07.2018 04:00:00 18,8 13,2 5 3 SSE 1016,0 20 0,0
13.07.2018 03:00:00 19,7 13,4 2 1 SSW 1015,5 20 0,0
13.07.2018 02:00:00 20,7 13,4 11 6 W 1015,2 20 -
13.07.2018 01:00:00 22,6 14,2 9 5 WNW 1014,6 20 0,0
13.07.2018 00:00:00 24,0 13,5 4 2 SSE 1013,7 20 0,0
12.07.2018 23:00:00 24,6 14,4 18 10 W 1013,2 20 -
12.07.2018 22:00:00 26,7 12,4 15 8 W 1012,0 20 0,0
12.07.2018 21:00:00 28,3 12,6 16 9 WNW 1011,0 20 0,0
12.07.2018 20:00:00 30,4 11,9 15 8 WNW 1010,2 20 -
12.07.2018 19:00:00 31,3 12,1 15 8 WNW 1009,9 20 0,0
12.07.2018 18:00:00 31,5 12,8 16 9 NW 1010,1 20 0,0
12.07.2018 17:00:00 31,5 13,7 11 6 N 1010,5 20 -
12.07.2018 16:00:00 30,6 14,2 13 7 NNW 1011,3 20 0,0
12.07.2018 15:00:00 29,9 14,4 11 6 N 1012,1 20 0,0
12.07.2018 14:00:00 28,5 14,3 8 4 N 1013,1 20 -
12.07.2018 13:00:00 27,2 13,9 11 6 N 1013,7 20 0,0
12.07.2018 12:00:00 24,9 12,8 5 3 N 1014,6 20 0,0
12.07.2018 11:00:00 22,8 11,5 5 3 NNE 1015,0 20 -
12.07.2018 10:00:00 20,7 10,5 5 3 N 1015,5 20 0,0
12.07.2018 09:00:00 19,3 10,6 8 4 NNW 1015,5 20 0,0
12.07.2018 08:00:00 17,9 9,3 2 1 SSE 1015,5 20 -
12.07.2018 07:00:00 17,4 7,7 2 1 SSE 1015,5 20 0,0
12.07.2018 06:00:00 18,3 7,7 2 1 W 1014,8 20 0,0
12.07.2018 05:00:00 19,4 9,3 2 1 SE 1014,5 20 -
12.07.2018 04:00:00 19,9 8,6 4 2 S 1014,4 20 0,0
12.07.2018 03:00:00 20,4 8,1 2 1 S 1014,4 20 0,0
12.07.2018 02:00:00 21,0 7,6 4 2 SW 1014,4 20 -
12.07.2018 01:00:00 22,3 7,7 15 8 WSW 1014,3 20 0,0
12.07.2018 00:00:00 23,2 6,9 8 4 S 1013,6 20 0,0
11.07.2018 23:00:00 24,5 5,3 5 3 S 1012,9 20 -
11.07.2018 22:00:00 26,5 4,3 11 6 W 1011,9 20 0,0
11.07.2018 21:00:00 28,3 6,4 15 8 W 1011,4 20 0,0
11.07.2018 20:00:00 30,2 6,8 13 7 W 1010,8 20 -
11.07.2018 19:00:00 30,6 9,5 18 10 WNW 1010,7 20 0,0
11.07.2018 18:00:00 31,3 9,5 18 10 WNW 1010,5 20 0,0
11.07.2018 17:00:00 31,5 11,8 18 10 W 1010,6 20 -
11.07.2018 16:00:00 31,6 12,4 22 12 WNW 1010,8 20 0,0
11.07.2018 15:00:00 31,3 11,1 24 13 WNW 1011,3 20 0,0
11.07.2018 14:00:00 30,3 11,3 15 8 NNW 1012,2 20 -
11.07.2018 13:00:00 28,1 14,0 5 3 NNE 1013,2 20 0,0

tt = Température de l'air
td = dewpoint
ff = Vitesse du vent
dd = Direction du vent
ppp = reduced air pressure
vv = visibility
rr = Quantités de précipitations

stations d'obs. à proximité